This is the latest recevied weather packets stored in our database for station/object W4MLN-1. If no packets are shown the sender has not sent any weather packets the latest 10 day(s).
| Time | Temp. | Humidity | Pressure | Rain* | Wind** | Luminosity | Snow |
|---|---|---|---|---|---|---|---|
| 1778022832 | 18.89° C | 48% | 1013.6 hPa | 0 mm | - | 63 W/m² | - |
| 1778022531 | 18.89° C | 48% | 1013.5 hPa | 0 mm | - | 80 W/m² | - |
| 1778022232 | 18.89° C | 48% | 1013.5 hPa | 0 mm | - | 80 W/m² | - |
| 1778021929 | 18.89° C | 48% | 1013.5 hPa | 0 mm | - | 72 W/m² | - |
| 1778021629 | 18.89° C | 48% | 1013.4 hPa | 0 mm | - | 87 W/m² | - |
| 1778021328 | 18.89° C | 48% | 1013.5 hPa | 0 mm | - | 96 W/m² | - |
| 1778021029 | 19.44° C | 49% | 1013.4 hPa | 0 mm | - | 94 W/m² | - |
| 1778020730 | 19.44° C | 49% | 1013.4 hPa | 0 mm | - | 112 W/m² | - |
| 1778020429 | 19.44° C | 49% | 1013.3 hPa | 0 mm | - | 148 W/m² | - |
| 1778020130 | 19.44° C | 48% | 1013.2 hPa | 0 mm | - | 189 W/m² | - |
| 1778019829 | 18.89° C | 48% | 1013.2 hPa | 0 mm | - | 183 W/m² | - |
| 1778019530 | 18.89° C | 49% | 1013.3 hPa | 0 mm | - | 181 W/m² | - |
| 1778019229 | 18.89° C | 49% | 1013.3 hPa | 0 mm | - | 166 W/m² | - |
| 1778018930 | 19.44° C | 49% | 1013.4 hPa | 0 mm | - | 158 W/m² | - |
| 1778018629 | 19.44° C | 48% | 1013.2 hPa | 0 mm | - | 199 W/m² | - |
| 1778018327 | 19.44° C | 49% | 1013.2 hPa | 0 mm | - | 397 W/m² | - |
| 1778018027 | 19.44° C | 48% | 1013.1 hPa | 0 mm | - | 205 W/m² | - |
| 1778017726 | 19.44° C | 47% | 1013 hPa | 0 mm | - | 243 W/m² | - |
| 1778017427 | 20° C | 46% | 1013.2 hPa | 0 mm | - | 381 W/m² | - |
| 1778017126 | 20° C | 46% | 1013.3 hPa | 0 mm | - | 495 W/m² | - |
| 1778016827 | 20° C | 46% | 1013.3 hPa | 0 mm | - | 435 W/m² | - |
| 1778016527 | 19.44° C | 46% | 1013.2 hPa | 0 mm | - | 321 W/m² | - |
| 1778016227 | 19.44° C | 48% | 1013.2 hPa | 0 mm | - | 255 W/m² | - |
| 1778015928 | 19.44° C | 48% | 1013.3 hPa | 0 mm | - | 233 W/m² | - |
| 1778015627 | 20° C | 48% | 1013.3 hPa | 0 mm | - | 272 W/m² | - |
* Rain latest hour (hover to see other rain measurements)
** Current wind speed in m/s (hover to see current wind gust speed)